Wind_Speed
9 9 9 9 9 10 9 5 5 5 5 8 9 9 9 9 10 7 7 11 10 4 6 10 9 8 10 10 11 13 11 11 6 4 1 4 9 14 9 10 15 15 16 14 12 16 20 19 17 17 16 17 18 19 21 22 22 21 22 23 23 22 21 21 19 19 18 17 18 18 18 20 20 20 21 20 18 17 15 14 13 13 14 14 15 15 14 15 16 15 14 14 14 13 13 13 13
8 10 10 10 11 9 5 4 7 6 7 9 9 10 8 9 9 10 9 8 9 4 5 8 7 9 13 11 12 11 9 7 9 9 5 11 13 12 9 11 15 16 15 14 12 15 20 19 18 18 17 17 18 19 21 22 22 22 23 23 24 23 22 21 19 19 17 17 17 18 18 19 18 19 20 20 17 16 15 13 13 13 14 14 14 14 14 15 15 15 14 14 14 13 13 13 13
9 11 12 11 9 8 5 5 7 7 9 9 9 8 8 10 11 11 7 7 9 4 2 7 9 9 10 10 10 7 7 6 12 9 7 15 11 10 12 12 14 15 16 15 14 15 19 20 20 19 17 17 18 20 21 22 22 23 23 24 24 24 23 21 20 18 17 17 17 17 18 18 18 18 19 19 17 15 14 13 13 14 14 14 13 13 14 14 14 14 14 14 14 13 13 14 13
10 11 12 11 7 7 6 6 7 9 9 9 8 7 9 10 11 12 6 9 8 3 5 7 8 7 8 12 10 7 7 5 9 6 6 11 10 13 15 14 14 15 16 15 16 18 19 22 21 19 18 17 19 20 21 22 22 23 24 24 24 24 23 21 20 18 16 18 18 17 17 17 18 18 18 18 16 15 15 14 13 14 14 13 13 13 14 13 14 14 14 14 14 13 13 14 13
10 12 13 11 6 5 5 6 7 9 9 9 7 8 11 9 9 11 7 5 1 2 7 7 8 7 7 11 8 6 6 6 7 12 9 10 15 17 16 16 16 15 15 14 16 18 18 21 22 20 18 17 19 20 21 22 22 23 23 24 24 23 22 20 19 17 16 18 18 17 17 17 17 17 18 18 16 16 15 14 14 13 13 13 13 14 14 14 14 14 14 14 13 13 13 14 13
11 13 14 11 6 5 6 7 8 9 10 10 8 9 11 10 11 10 7 2 1 6 9 8 8 6 8 8 6 8 7 9 6 13 13 13 16 17 17 17 17 15 14 14 16 18 18 21 22 20 19 18 19 20 21 22 22 22 22 23 23 22 21 19 18 16 16 17 17 17 17 17 16 16 17 17 17 16 15 15 14 13 13 13 14 15 15 15 14 14 14 13 12 13 14 14 13
12 10 9 9 6 5 7 9 10 9 10 12 10 12 10 9 10 6 6 4 4 8 7 9 5 3 7 6 6 7 6 11 9 8 10 13 15 15 16 13 13 13 14 14 15 17 18 20 23 22 19 19 19 20 21 21 22 22 22 23 21 21 20 18 17 16 16 16 16 17 17 17 16 15 16 16 16 16 15 15 14 14 14 15 16 16 15 15 14 14 13 12 12 13 13 13 13
14 9 5 7 6 6 7 9 11 9 11 14 13 15 11 8 9 7 6 5 6 8 8 12 8 7 7 5 4 7 12 13 13 9 11 13 11 12 12 8 7 5 11 16 15 15 17 19 22 23 19 19 19 19 20 20 20 21 21 22 22 21 20 17 16 15 16 16 16 17 18 16 15 15 15 15 16 16 15 15 14 14 15 17 17 16 15 14 14 13 12 12 13 12 11 11 11
13 9 5 6 7 7 8 9 10 11 12 13 14 15 10 8 10 9 9 8 9 9 10 12 9 10 8 8 6 7 14 8 15 16 21 21 17 15 13 9 7 2 2 3 7 9 14 19 22 22 19 19 19 19 20 19 18 19 19 21 22 21 19 17 16 15 16 17 17 18 18 16 15 15 15 14 15 16 16 16 14 15 16 16 16 14 14 13 12 12 11 12 12 10 8 8 8
8 7 6 6 7 8 8 8 8 11 10 10 13 11 6 5 5 5 9 10 10 9 10 11 10 11 9 10 6 6 11 8 17 26 30 25 18 15 16 13 8 6 11 12 5 6 11 15 19 19 18 19 18 19 19 18 19 19 19 19 18 18 18 16 15 15 16 17 17 17 18 17 15 15 14 14 15 15 16 16 15 15 16 14 13 13 13 12 11 10 10 11 10 7 6 6 6
6 5 6 6 7 8 7 8 8 9 9 11 11 5 3 5 6 7 9 9 9 9 10 10 8 7 7 7 4 6 16 20 22 31 29 26 20 15 20 20 13 8 7 9 10 5 10 11 13 15 15 17 16 17 17 18 19 19 18 17 15 14 14 14 15 15 16 16 16 17 17 16 15 15 14 14 14 14 15 15 15 16 16 13 12 12 11 11 10 10 10 10 8 6 6 5 5
6 6 6 6 7 7 8 9 8 10 9 9 6 1 2 5 6 7 7 7 8 9 9 7 5 6 6 5 4 6 21 24 25 33 29 28 25 19 21 22 17 9 9 12 7 11 9 8 8 10 10 12 12 13 14 17 18 17 17 16 14 13 12 13 14 15 17 16 17 17 16 16 15 15 14 14 14 13 14 14 14 16 17 13 11 11 11 11 10 10 10 9 8 6 6 5 5
7 7 6 7 7 7 9 9 10 10 8 8 7 1 2 2 3 4 6 8 8 9 7 6 7 7 6 6 4 6 18 19 23 34 32 30 27 22 19 18 14 10 15 20 10 8 9 6 5 8 6 7 8 9 12 13 15 15 15 14 14 13 11 12 13 15 16 16 17 17 16 15 15 14 14 14 14 13 13 13 14 16 17 14 12 11 10 10 9 9 9 8 7 6 6 5 6
7 6 6 7 7 9 9 8 10 9 6 4 4 5 7 4 4 5 8 9 9 8 5 7 7 5 6 5 3 6 17 26 31 33 31 30 28 23 18 16 13 15 20 21 21 15 11 8 6 7 5 4 4 3 6 9 11 12 13 14 13 13 12 12 13 14 15 16 17 17 16 15 15 14 13 13 14 14 13 13 14 15 16 14 12 11 10 10 9 9 9 8 7 6 5 5 6
7 5 6 7 7 8 8 9 8 7 7 4 8 9 8 3 4 4 7 8 8 7 7 7 3 3 5 5 5 10 20 29 29 26 26 26 28 26 18 15 16 18 21 18 22 21 19 17 11 9 7 6 6 1 2 4 6 9 11 12 12 12 12 13 14 14 14 15 16 16 15 14 14 14 13 13 14 14 14 13 15 16 16 16 13 11 11 10 9 9 9 9 7 6 5 4 5
6 5 6 6 8 8 7 9 8 7 5 8 9 6 5 7 6 5 6 5 7 8 8 5 1 2 5 6 7 19 24 26 23 23 23 23 26 25 21 17 15 19 21 19 20 20 21 22 18 13 8 6 7 3 2 3 4 6 8 9 10 12 12 13 13 13 14 14 15 15 15 14 13 13 13 13 13 14 14 12 14 16 15 16 14 11 11 11 10 10 10 9 8 7 5 4 4
6 6 6 7 8 9 7 9 8 4 2 8 8 5 3 6 2 1 4 4 7 7 7 7 5 4 5 4 17 26 25 26 25 26 24 23 26 22 20 18 13 14 15 15 15 16 18 23 22 17 13 9 6 5 3 3 4 5 6 8 8 9 11 11 10 11 11 11 13 13 14 15 14 14 13 13 13 13 13 12 13 15 14 14 13 12 11 11 10 10 10 9 8 8 7 6 5
6 6 7 7 7 8 9 10 5 3 4 5 8 5 4 6 1 4 2 6 6 7 7 6 6 6 4 7 23 25 23 27 25 23 19 16 17 16 16 14 9 9 11 12 10 8 11 20 26 23 18 13 7 7 6 6 6 5 6 8 8 8 9 9 9 10 10 10 12 13 15 15 14 14 14 14 14 13 12 11 12 13 13 13 13 12 12 11 10 11 11 10 9 9 8 8 8
7 6 7 7 9 10 9 8 7 7 5 6 6 2 3 5 3 3 3 5 5 6 5 5 7 1 9 17 24 24 25 25 21 20 15 12 12 10 13 13 8 7 8 8 6 6 6 9 18 24 24 21 13 8 6 7 8 8 8 8 7 7 8 9 9 9 10 11 13 15 15 15 14 13 14 13 12 13 13 12 12 12 13 13 12 12 12 11 11 12 12 11 11 10 11 10 9
8 7 7 9 10 12 8 4 5 5 6 5 3 3 1 5 4 2 4 6 6 5 3 3 6 8 16 20 21 22 23 21 20 19 15 15 13 9 14 15 11 10 7 6 6 8 8 3 7 14 21 26 23 15 10 11 13 13 13 11 9 7 7 8 9 10 11 12 15 16 16 15 13 11 11 11 10 11 13 12 12 13 13 12 11 11 11 12 12 13 13 13 13 13 13 11 10
7 8 9 11 7 10 5 1 3 3 4 5 4 3 4 5 2 5 6 5 8 2 8 6 9 12 11 18 19 19 20 18 18 17 16 15 12 10 14 17 12 6 7 9 8 7 6 6 6 7 11 19 24 23 19 18 20 19 18 15 11 10 9 7 6 7 7 11 14 14 14 12 10 9 8 10 11 12 12 12 13 13 13 12 11 11 10 12 12 13 14 14 15 15 14 12 11
7 8 13 14 8 10 3 5 2 1 2 5 5 6 7 3 1 5 6 6 6 6 9 8 8 10 10 17 17 17 18 16 15 15 14 13 11 9 10 15 16 10 7 10 10 7 5 6 9 9 10 12 16 21 22 21 22 23 23 20 15 13 11 8 5 6 5 8 10 8 9 9 8 8 9 11 12 12 12 13 14 13 13 13 13 13 11 12 12 13 13 14 16 15 14 13 14
8 8 12 13 8 8 4 5 0 2 3 6 5 8 5 5 6 5 7 6 6 9 7 9 6 5 15 17 16 19 18 15 13 13 12 12 11 8 8 11 14 13 11 12 10 8 7 6 7 11 12 12 13 15 18 19 19 18 21 20 18 16 12 10 8 7 6 8 9 6 6 6 6 5 6 11 11 11 13 13 12 13 13 13 13 13 11 12 13 13 13 13 14 13 14 14 15
9 8 10 10 8 9 4 2 1 1 6 8 6 7 5 7 7 3 4 3 4 6 4 7 6 6 18 17 17 18 16 15 13 12 12 11 10 8 9 11 13 14 14 14 13 10 8 7 8 12 14 14 13 14 17 18 16 14 14 15 17 17 13 10 8 5 4 8 9 7 6 4 3 2 1 8 9 7 10 12 12 11 11 11 12 11 11 13 13 12 14 14 14 14 15 16 16
10 11 10 9 8 9 6 1 1 3 6 6 7 9 7 8 8 7 6 5 5 4 4 2 5 5 16 18 18 17 15 15 13 13 12 9 9 10 12 14 15 16 16 16 15 14 11 9 11 14 16 16 15 16 18 18 16 14 13 13 14 14 12 9 6 4 3 5 7 7 6 4 1 1 1 4 6 4 5 8 10 11 10 10 11 10 10 13 14 14 14 13 15 16 16 16 15
8 13 10 6 5 6 7 6 6 5 4 6 9 9 9 9 8 9 8 7 6 1 3 5 4 2 12 16 16 15 13 14 13 12 11 9 9 12 13 13 15 16 17 18 17 15 13 12 11 12 15 16 16 16 16 16 16 15 14 13 12 12 11 9 8 8 4 1 4 5 5 6 6 3 1 0 2 2 2 4 6 8 8 9 11 11 10 12 15 15 14 14 15 16 16 16 14
6 11 9 5 6 6 8 9 8 7 7 9 10 10 10 9 8 7 6 5 2 1 5 6 2 2 9 13 15 14 12 13 12 10 11 9 9 12 12 11 13 17 18 19 18 15 14 15 13 13 14 14 15 15 15 14 14 15 14 13 12 12 12 11 11 10 7 4 5 3 4 8 10 6 5 4 4 5 5 4 4 6 7 7 9 10 10 11 15 15 14 14 15 16 16 16 16
5 9 8 7 9 9 7 9 8 7 8 10 11 11 11 11 9 7 5 5 4 2 8 5 2 3 10 12 14 13 11 12 10 9 10 8 9 10 11 10 11 14 17 18 18 16 16 16 16 16 15 14 14 16 17 17 16 15 15 15 15 15 15 14 13 11 8 5 3 1 3 9 10 6 6 6 6 8 7 5 5 7 8 7 8 9 10 9 11 14 14 15 14 15 17 16 15
6 7 7 8 10 10 10 10 9 9 8 8 8 9 12 12 10 9 6 8 6 3 7 4 3 3 10 10 13 13 11 12 9 8 8 8 10 11 12 11 9 11 15 16 17 17 16 16 17 18 15 14 15 15 16 16 16 15 15 16 15 15 16 17 16 12 9 6 4 3 3 8 9 5 4 4 6 9 9 8 8 7 7 9 10 11 12 11 10 12 12 14 14 13 16 16 14
8 7 6 9 9 10 14 12 11 11 6 4 5 7 10 11 13 12 5 6 4 4 6 6 5 4 9 7 12 13 11 11 8 8 9 9 12 13 13 12 9 9 11 14 15 16 15 15 17 17 16 16 16 15 16 17 16 14 13 12 11 11 12 14 14 11 8 7 6 5 4 6 7 5 4 4 4 7 8 9 10 9 9 9 10 11 12 13 12 12 11 12 15 14 14 16 16
7 8 7 7 7 10 14 14 11 11 6 6 8 8 8 10 14 9 6 3 4 6 7 4 1 5 8 7 13 13 10 11 10 9 10 10 12 13 14 15 12 9 10 13 14 15 15 14 15 16 15 14 14 13 14 15 15 15 14 13 13 12 10 11 12 10 8 7 5 3 3 5 6 5 5 6 6 6 8 9 10 10 10 10 11 11 11 12 13 14 13 12 15 16 15 15 16
7 7 7 7 8 9 11 16 14 12 8 9 11 7 8 10 13 13 8 7 6 7 3 5 1 2 6 7 13 13 11 13 12 11 10 11 12 12 14 14 13 12 13 14 14 14 14 14 14 14 12 10 9 9 8 8 8 9 9 11 13 14 13 11 12 12 11 8 5 4 5 6 8 8 7 8 8 8 8 9 10 10 11 12 12 11 11 12 13 14 14 14 15 17 15 14 17
7 7 7 8 10 5 9 15 17 14 9 10 10 8 9 3 10 13 8 7 7 4 2 5 2 1 5 7 13 12 11 12 10 11 11 11 12 12 13 12 12 14 14 14 14 15 13 13 13 12 11 9 8 7 6 5 5 5 4 5 6 8 9 8 8 10 10 8 5 6 8 10 10 9 9 9 9 10 11 12 12 12 12 13 12 11 11 11 11 12 14 15 17 19 17 15 15
6 7 7 9 11 6 7 13 16 14 9 8 9 9 9 1 8 10 11 8 6 5 5 7 4 1 3 4 12 13 11 11 9 10 10 11 13 13 14 13 13 14 15 15 14 15 14 12 12 10 10 9 8 7 6 5 5 4 3 3 2 2 2 1 1 3 4 4 4 6 8 9 10 10 10 11 12 12 13 14 15 14 14 14 14 14 14 13 12 12 15 17 18 20 21 20 18
8 8 7 8 10 10 7 8 13 13 9 6 7 8 11 8 7 8 12 11 7 5 5 8 7 4 5 4 8 12 11 11 10 11 12 13 14 15 16 14 14 14 15 16 15 15 14 13 12 9 8 8 7 6 5 5 3 2 2 2 2 3 4 4 4 4 4 4 4 6 6 7 8 9 9 10 11 11 12 13 14 14 14 14 14 16 17 16 15 14 15 17 18 19 20 22 22
12 9 7 8 8 10 10 7 12 10 9 8 9 8 11 12 11 11 9 11 8 6 5 6 8 6 6 4 6 11 11 12 13 15 16 16 15 16 17 15 15 15 15 16 15 15 15 14 13 10 9 9 8 6 5 4 3 3 3 3 3 3 2 3 3 3 3 3 3 3 5 6 6 8 9 9 10 10 11 12 13 13 13 12 12 14 15 16 17 17 17 17 19 19 20 21 23
14 12 10 11 10 9 10 8 16 11 7 7 8 9 12 11 13 14 8 13 9 7 6 6 7 6 6 4 8 12 10 12 16 17 17 17 17 17 17 16 16 17 15 15 15 15 14 13 12 11 9 8 8 7 6 6 4 3 3 3 3 3 2 2 2 2 1 2 2 2 3 4 5 7 8 8 9 11 12 14 14 14 14 13 13 13 14 15 15 17 17 17 18 18 20 21 22
11 10 10 11 9 7 9 6 11 11 5 5 7 10 14 12 14 15 6 13 12 8 7 7 8 7 6 7 11 13 10 11 14 15 15 17 18 17 17 17 17 17 16 15 15 14 14 13 12 12 10 10 9 8 8 7 6 4 3 2 1 2 1 1 1 1 2 3 4 5 5 5 5 6 7 8 9 10 12 13 14 15 16 16 15 15 16 16 15 16 16 17 18 18 19 20 19
5 6 9 9 8 8 9 11 11 7 5 6 7 8 12 13 14 13 9 9 9 10 8 7 8 8 7 10 13 12 11 12 11 12 15 17 18 18 17 16 16 16 16 15 16 16 15 14 13 12 11 11 10 9 9 8 6 5 4 2 2 1 1 2 3 2 3 5 5 6 7 6 5 5 6 7 8 10 11 12 13 14 15 15 16 16 17 18 17 17 17 18 18 18 19 20 20
6 7 8 8 9 10 7 9 13 8 5 9 7 6 9 12 13 12 11 12 9 11 10 10 9 9 8 11 14 13 12 13 12 12 14 17 18 17 16 16 16 16 15 15 16 15 15 14 13 13 12 11 11 10 9 8 7 5 4 4 3 2 1 2 3 3 3 4 6 6 5 6 6 7 8 8 8 9 10 12 13 14 14 14 16 16 17 18 19 20 21 20 18 18 19 19 20
9 10 9 10 11 13 10 9 10 7 9 12 9 6 6 9 12 12 10 11 14 13 13 14 12 10 9 10 15 15 14 13 13 14 13 14 15 15 15 16 16 16 15 15 15 15 15 14 13 12 12 11 11 10 9 9 8 7 6 5 4 3 2 2 3 4 4 5 6 6 4 5 7 9 10 10 10 10 10 11 12 13 13 14 15 16 17 19 19 20 21 20 20 21 20 19 20
9 11 12 13 14 15 15 14 12 7 7 9 9 7 6 8 10 12 9 8 14 12 11 13 10 10 9 10 13 13 13 13 12 13 13 13 15 15 15 16 16 15 15 15 15 15 16 15 14 13 12 11 10 10 9 9 8 8 8 6 5 4 3 4 4 5 6 6 6 6 6 6 7 8 9 10 10 10 11 12 12 13 13 13 15 16 17 18 18 19 20 21 22 24 22 20 22
7 9 12 14 14 15 15 16 12 7 7 7 8 8 5 6 8 10 9 10 14 10 9 11 6 8 10 9 12 12 13 13 12 13 13 13 15 15 15 16 16 15 16 16 16 16 16 16 15 13 12 11 10 9 8 7 7 8 7 6 5 4 4 5 6 7 7 7 7 8 8 8 7 7 8 8 9 9 10 12 13 13 14 14 16 17 17 18 18 19 19 19 22 24 24 23 25
7 10 13 12 12 13 13 14 11 8 10 9 10 11 7 7 7 8 10 12 13 9 8 9 7 9 10 9 12 14 14 14 13 13 13 13 15 16 16 16 17 16 17 17 17 17 16 16 15 13 12 11 10 9 8 7 6 6 6 6 5 4 5 6 8 8 7 7 8 9 9 9 8 8 8 8 8 8 9 9 10 12 13 14 15 16 17 17 18 19 19 19 21 23 24 26 27
8 13 15 12 12 13 11 10 9 9 9 9 10 11 9 7 7 8 11 12 12 11 9 9 10 12 9 8 12 15 15 15 14 13 13 13 15 18 18 17 17 18 18 17 17 17 16 16 15 14 13 11 9 8 7 6 6 5 5 5 5 4 5 7 7 7 8 8 9 9 9 9 9 8 8 8 8 8 8 9 9 10 12 13 14 16 17 17 17 18 19 20 21 22 25 27 28
7 14 15 13 11 11 10 9 9 9 9 9 11 10 8 7 7 7 8 9 10 10 9 10 12 12 10 8 10 13 14 14 14 14 14 14 17 19 19 19 19 18 18 17 17 17 16 15 15 14 13 11 9 7 6 5 4 4 4 4 4 5 6 7 8 8 8 9 9 9 9 9 9 8 8 8 8 9 9 9 9 10 11 12 14 16 17 18 19 19 18 20 21 23 25 25 27
9 13 12 10 9 8 8 7 8 9 8 10 12 13 11 8 7 5 4 6 7 5 6 8 11 12 11 10 10 12 13 13 14 14 14 16 18 19 20 20 20 19 19 18 18 17 16 16 15 14 12 11 10 8 6 4 3 2 2 3 3 4 6 7 8 9 10 10 10 10 10 10 9 9 9 9 9 9 9 9 10 11 11 12 13 14 15 16 18 18 18 19 20 21 23 24 26
7 7 8 7 6 6 7 7 7 7 8 9 12 14 13 10 7 5 6 6 3 3 5 7 10 10 10 10 11 12 11 12 14 14 14 15 16 17 19 20 20 20 20 19 19 18 17 16 15 14 12 11 10 8 6 4 3 2 1 2 3 4 5 6 8 9 10 10 11 11 11 11 11 10 10 10 10 9 10 10 11 11 11 12 14 14 15 16 17 17 18 18 18 18 20 22 25
6 5 6 5 4 5 6 6 6 8 8 9 11 13 11 9 6 5 9 9 7 8 7 7 7 5 6 9 11 11 11 11 13 13 13 13 13 14 18 19 20 21 21 21 20 19 18 17 16 15 13 11 9 8 6 4 4 2 0 1 3 4 5 6 7 8 9 10 11 11 12 12 12 12 11 11 11 10 11 12 12 12 13 14 15 15 16 17 18 19 19 20 20 21 21 20 23
6 7 6 7 6 6 7 6 6 8 8 10 12 11 8 7 5 6 8 6 4 4 4 3 4 2 2 6 10 12 11 10 11 12 13 13 12 14 18 20 20 20 21 21 20 20 18 17 17 15 14 12 10 9 7 5 4 3 2 1 3 4 5 6 7 8 9 10 10 11 12 13 13 14 13 13 12 12 13 13 14 14 15 15 15 16 16 17 17 18 19 19 20 23 24 24 24
7 7 6 7 6 6 6 6 7 7 7 9 11 8 5 5 3 4 8 5 2 1 3 5 3 2 1 4 8 11 11 9 9 10 12 13 14 16 19 20 20 20 21 22 20 20 19 18 18 16 14 13 11 9 8 6 5 3 2 1 2 4 5 7 8 9 9 10 10 11 12 13 14 14 14 14 14 14 15 15 15 15 15 16 16 16 17 18 18 18 18 18 19 21 23 25 25
5 5 6 6 6 6 6 7 9 9 7 8 8 6 5 5 4 4 6 4 3 5 5 6 5 4 4 5 6 8 9 10 10 10 11 14 16 19 20 19 19 20 21 21 21 20 19 19 18 16 15 13 11 10 8 6 5 3 1 2 3 4 6 7 9 9 10 10 11 12 13 13 14 14 15 15 15 15 16 16 16 16 17 17 17 18 18 18 18 18 18 19 20 20 21 23 25
3 4 6 4 4 5 6 7 9 8 8 7 6 7 7 6 5 3 6 6 5 7 7 5 4 4 4 4 3 5 6 7 6 8 11 14 16 18 20 20 20 20 21 21 21 21 20 19 18 16 15 13 11 10 8 6 4 2 2 3 3 4 6 8 9 10 11 11 12 12 13 14 14 14 15 15 15 16 17 17 18 19 18 18 18 19 19 19 19 19 19 20 20 21 21 23 24
5 4 5 2 2 3 4 6 6 6 8 6 7 10 6 5 4 6 11 8 5 7 6 1 2 2 2 3 1 3 5 4 4 6 11 15 16 17 20 20 20 21 21 21 21 21 20 19 19 17 15 14 12 10 7 5 3 2 3 4 5 6 7 8 9 11 11 12 12 12 14 14 14 15 15 15 16 17 17 18 18 19 19 19 19 20 20 20 21 20 20 20 21 22 22 22 23
12 8 5 3 2 2 1 3 5 6 7 6 8 11 6 4 3 5 8 10 8 7 4 1 2 2 2 4 3 4 5 3 5 7 10 12 14 18 20 20 21 21 21 21 21 20 19 19 19 17 16 14 11 9 7 5 3 2 3 4 6 8 9 9 10 12 12 11 12 13 14 14 15 15 15 15 16 17 17 17 18 18 19 19 20 20 21 21 21 21 21 20 19 21 22 22 22
12 10 7 6 6 4 3 3 4 5 7 6 7 8 3 2 1 5 2 6 4 6 4 2 2 1 1 4 2 4 4 3 5 6 8 10 14 20 21 20 20 20 20 20 21 20 20 19 18 18 16 14 12 9 7 6 4 3 4 5 6 9 10 11 12 12 11 11 12 13 14 15 15 15 15 16 17 17 17 17 18 18 18 19 19 20 20 21 21 22 22 21 19 20 21 22 22
7 8 8 6 5 5 5 6 6 6 6 5 6 6 2 0 1 4 1 0 3 3 4 4 4 1 1 2 3 2 2 2 4 5 7 10 13 18 21 21 19 19 19 20 20 20 20 19 18 17 16 15 12 10 9 8 5 5 7 5 6 9 11 11 12 12 12 13 13 14 14 15 15 16 16 16 17 17 17 17 17 17 18 18 19 19 19 20 21 23 24 22 19 19 20 20 21
7 7 7 3 1 4 7 8 8 7 6 5 6 7 2 0 1 2 0 1 1 3 5 3 5 4 1 1 2 2 3 3 1 3 4 5 11 14 18 18 17 18 19 20 20 19 19 18 17 17 16 15 13 12 12 10 6 7 6 3 5 9 11 11 12 13 13 13 13 13 14 15 16 16 16 17 17 17 17 18 18 18 18 18 18 19 19 19 19 21 23 23 21 20 20 21 21
Wind_Direction
261 281 294 295 282 271 261 244 258 252 244 262 263 267 262 254 264 254 231 257 270 262 275 295 317 302 293 307 308 308 300 300 338 9 80 136 132 135 150 148 150 153 147 157 172 177 179 187 192 198 200 195 192 192 195 194 190 185 183 183 179 175 171 167 164 159 153 148 148 145 143 142 143 143 143 143 141 140 137 135 133 131 129 128 128 128 128 125 125 123 117 114 114 115 113 112 112
261 276 277 270 263 262 267 247 260 266 257 265 261 261 273 271 255 248 248 248 262 256 227 269 295 286 294 293 280 282 281 320 71 94 125 133 123 124 145 150 153 151 145 157 175 176 179 190 193 198 201 194 193 192 193 192 190 186 184 183 179 176 172 169 165 159 151 148 150 148 145 142 141 142 144 145 143 141 137 136 134 133 131 130 131 130 129 128 127 126 121 118 117 118 117 116 115
259 274 272 259 248 244 258 259 260 267 262 263 263 260 263 265 261 259 247 226 255 298 274 271 279 286 302 291 287 300 310 4 92 114 130 126 120 130 146 152 152 150 146 158 174 176 183 191 193 198 198 191 191 191 192 190 188 185 184 182 179 176 173 170 164 158 150 149 152 148 145 142 140 141 144 146 144 141 138 137 137 135 134 134 133 132 131 130 129 127 124 122 122 123 121 120 119
258 267 270 266 251 238 249 254 255 262 262 262 267 274 266 262 270 280 255 223 249 290 270 276 277 291 310 294 309 329 312 357 93 104 114 118 127 142 145 153 149 148 151 155 166 170 182 191 192 196 195 188 188 189 190 188 186 183 182 181 177 174 173 169 164 157 151 151 151 149 146 142 142 143 146 147 145 143 141 139 140 139 138 137 135 135 135 133 130 128 126 126 126 126 126 126 124
259 261 262 263 263 255 255 253 251 253 256 262 271 279 274 278 273 278 278 239 261 279 263 283 285 293 299 285 306 317 302 338 61 94 116 130 138 148 146 151 148 149 155 157 165 164 178 191 191 193 192 186 185 187 187 185 184 181 180 178 175 173 172 168 165 158 152 152 151 150 147 144 145 147 148 147 146 144 143 141 142 142 141 139 138 137 135 134 131 130 129 129 131 131 131 130 128
253 257 251 245 262 282 265 256 255 251 255 262 271 272 270 284 275 267 276 262 16 280 270 267 275 303 304 293 299 285 304 337 11 95 116 132 135 146 145 150 150 153 159 164 172 168 182 193 189 191 190 185 183 184 185 184 182 180 179 178 175 173 171 168 165 159 153 152 152 151 147 146 149 150 148 147 147 145 143 143 144 143 142 140 138 136 133 133 132 133 133 135 139 136 132 130 128
245 251 242 228 240 261 256 257 260 262 267 266 268 272 274 287 292 293 280 273 259 264 266 268 284 314 289 284 279 285 341 16 20 51 79 119 137 143 138 143 145 154 164 167 174 175 190 195 188 188 187 183 180 181 182 181 180 180 180 177 174 173 172 168 164 160 155 154 154 153 149 149 152 152 149 146 147 146 145 143 143 142 142 140 136 133 133 134 136 138 140 146 146 137 132 128 128
242 248 256 242 235 231 240 250 254 259 263 267 268 270 280 296 297 301 289 287 283 286 288 288 299 277 279 298 303 332 336 18 45 23 38 86 114 116 114 114 117 149 175 172 176 185 198 196 188 186 183 179 176 179 180 180 180 180 178 176 175 174 173 169 164 161 159 159 158 154 151 152 154 154 151 148 148 147 145 142 142 144 143 139 134 132 134 135 139 143 146 154 146 135 132 128 129
237 240 254 259 255 247 246 251 253 252 251 258 264 266 281 298 282 278 289 289 290 302 291 291 301 287 312 324 313 333 316 5 59 41 44 60 70 71 75 93 115 78 350 166 164 174 193 194 187 183 178 176 174 177 178 179 181 181 179 177 177 176 175 170 165 163 164 162 159 156 154 155 156 156 154 152 150 147 146 143 144 147 145 141 136 136 137 137 140 143 146 148 143 135 131 127 128
229 231 243 254 254 259 258 261 261 258 258 261 265 266 269 286 294 297 296 290 299 311 298 296 296 290 301 310 306 326 335 32 61 52 53 59 69 69 62 66 109 108 27 18 41 143 168 181 181 176 173 172 171 172 175 179 182 183 180 177 176 175 176 174 169 167 167 163 159 159 157 157 157 157 157 155 153 150 149 148 147 150 147 144 144 145 144 143 145 147 148 147 147 144 136 135 135
234 223 237 255 254 257 258 261 263 261 255 250 258 276 294 301 312 299 286 284 294 287 286 289 286 298 298 322 337 337 18 31 44 56 59 61 72 73 63 57 69 97 70 52 28 53 151 165 169 169 171 171 170 171 173 177 179 180 179 179 180 179 179 175 172 170 168 164 161 162 161 160 159 159 159 158 158 153 154 153 150 152 151 150 152 151 151 151 153 154 156 158 156 149 145 146 146
251 236 225 239 254 257 264 268 270 267 260 256 255 288 325 300 288 288 293 297 299 281 287 305 332 7 335 342 324 0 38 31 40 57 57 57 61 58 62 64 64 81 145 149 49 35 119 142 154 159 164 165 165 174 175 175 175 177 180 181 183 184 185 178 174 172 169 167 164 163 162 161 162 163 163 163 163 159 159 158 153 155 156 157 159 158 159 160 161 160 164 167 158 149 146 149 157
248 250 239 238 247 254 266 273 276 273 279 294 287 335 49 322 321 335 316 306 301 288 302 352 7 9 327 312 294 21 38 25 43 58 53 51 54 56 74 86 87 117 154 167 152 75 97 115 160 158 150 156 154 174 177 172 172 174 180 182 185 188 188 183 176 174 171 169 166 163 162 164 167 168 168 169 170 167 166 164 159 159 161 163 165 166 167 166 165 164 167 168 158 151 148 155 166
242 251 259 256 255 258 264 265 277 284 281 308 328 34 56 49 6 344 305 302 295 292 328 14 6 342 326 315 308 33 36 36 49 56 53 49 49 57 81 94 93 125 141 156 153 131 127 137 157 143 129 140 132 186 185 173 174 174 184 186 189 192 190 187 179 176 175 172 169 164 166 170 173 175 175 176 177 176 174 171 167 164 167 170 171 172 174 174 173 172 171 169 162 159 157 160 168
244 259 261 265 270 267 268 262 269 284 283 43 48 38 48 350 315 308 290 291 285 300 341 8 358 315 4 343 345 49 53 52 56 55 56 53 47 47 50 64 70 92 107 120 132 137 148 148 144 132 114 120 117 45 230 187 186 180 189 191 188 191 189 186 182 179 179 178 177 170 170 176 180 183 184 183 183 185 182 179 174 170 174 177 177 176 181 184 182 180 178 175 172 171 169 166 168
241 263 262 261 265 263 269 271 261 258 269 75 62 31 23 298 292 284 282 302 301 312 326 340 329 326 5 325 23 63 62 62 66 61 62 61 56 49 35 40 59 77 91 99 115 134 149 146 144 149 132 125 130 127 208 188 199 190 192 194 190 192 187 183 185 187 185 185 187 180 176 179 183 185 185 185 184 186 186 184 180 176 180 182 179 182 190 193 191 188 188 187 186 185 185 185 180
232 243 259 257 255 262 259 263 265 263 336 69 58 30 341 288 300 336 294 297 297 296 288 291 304 307 296 336 59 67 64 64 66 61 59 59 61 60 46 35 36 58 74 87 106 127 145 143 136 139 137 135 137 145 163 160 189 200 195 196 195 198 192 187 188 192 194 191 194 192 185 179 180 183 183 185 185 185 183 183 185 183 184 185 183 191 199 199 198 198 201 203 203 202 199 201 199
236 228 242 254 253 255 250 261 296 34 358 32 56 39 317 292 62 70 294 257 251 247 246 254 273 266 244 73 73 72 69 69 66 63 61 61 67 74 69 50 29 36 46 60 83 118 151 145 135 133 134 139 149 163 170 175 183 187 196 195 193 202 199 197 195 193 197 194 194 197 194 186 184 189 191 192 192 187 183 182 187 188 186 187 189 199 207 206 207 210 216 218 219 219 216 215 215
234 239 232 246 253 257 266 304 4 41 355 3 41 24 306 304 344 55 305 303 303 267 257 232 243 232 78 74 74 72 71 71 70 70 64 64 74 84 85 70 36 25 49 68 79 112 151 149 140 141 141 143 150 167 190 196 179 172 187 189 185 197 200 203 201 195 197 196 197 201 202 196 192 198 196 195 196 189 187 189 190 188 186 188 194 205 214 214 216 221 226 228 230 229 229 225 226
219 237 243 235 244 269 280 327 357 9 354 330 344 35 340 293 316 317 313 327 294 281 349 306 301 25 67 76 74 72 74 72 72 73 65 63 65 64 78 75 42 14 40 81 97 126 152 161 140 148 151 151 154 168 201 204 184 178 181 178 175 180 193 207 211 206 204 199 203 209 211 205 199 199 190 188 195 192 190 194 196 194 190 191 195 203 214 220 223 227 229 231 233 235 235 230 230
213 216 245 244 253 295 286 127 296 321 353 298 314 13 271 264 264 282 316 303 263 353 41 18 358 2 55 85 81 79 78 73 72 71 67 67 65 63 82 94 86 45 42 65 77 111 152 158 131 137 159 157 156 165 180 186 182 182 182 181 181 177 185 200 225 227 222 213 214 221 222 221 212 200 196 195 194 192 189 192 197 198 198 200 203 204 211 218 224 229 230 231 232 234 237 234 234
233 220 240 255 282 307 341 66 315 328 347 289 296 276 265 290 275 269 277 262 277 359 23 35 19 352 43 79 82 81 78 73 73 71 70 72 67 65 85 102 106 109 90 69 66 70 97 135 131 127 140 146 147 155 167 176 178 180 182 183 185 182 189 196 229 268 284 242 233 237 231 240 230 200 201 205 196 193 193 195 199 200 203 206 208 210 213 216 224 227 228 235 235 234 237 237 241
234 231 235 250 267 284 353 46 10 64 280 255 248 253 270 299 276 259 247 254 315 330 355 29 3 24 66 75 79 80 80 77 74 73 76 76 72 67 67 83 95 103 100 89 80 68 74 100 123 130 132 135 138 147 160 170 173 176 178 181 179 177 187 195 220 271 289 246 239 247 243 253 240 204 194 201 202 200 200 206 208 208 211 213 213 213 211 214 223 224 224 235 239 236 238 238 239
228 250 250 249 244 251 284 32 114 126 256 260 271 270 286 277 273 282 254 268 309 301 8 28 330 65 81 80 83 84 85 85 81 78 75 73 76 82 83 85 89 93 92 92 93 88 88 95 118 136 138 141 145 150 158 164 168 165 165 171 170 170 178 188 212 252 250 228 232 245 256 259 224 230 189 192 203 213 213 215 212 210 212 213 216 216 209 213 225 228 226 233 237 237 239 240 237
224 249 259 251 230 239 257 287 255 237 237 254 271 275 280 270 280 288 282 298 278 295 25 353 287 89 93 88 89 91 90 90 87 82 79 77 83 90 94 96 94 92 88 87 92 93 97 106 120 132 139 148 149 149 152 156 163 158 154 159 158 163 169 170 178 183 191 217 224 244 273 287 253 277 30 171 198 215 215 217 214 215 217 214 216 217 212 218 231 233 229 232 239 240 242 247 243
218 235 252 267 233 227 249 249 239 238 241 245 248 252 256 255 267 270 265 274 259 289 342 265 257 106 98 94 96 96 93 92 91 91 89 87 92 95 91 91 92 92 91 89 88 92 103 114 122 129 134 143 146 147 146 148 159 161 160 161 153 152 156 145 131 146 170 250 227 244 287 294 293 290 317 290 234 251 238 232 222 219 224 222 221 225 223 223 232 236 232 233 238 240 242 247 244
232 237 246 264 258 238 231 236 234 235 236 237 245 249 253 247 242 250 230 227 229 67 278 260 252 90 92 94 103 102 96 94 95 102 105 101 98 96 90 87 92 95 94 90 88 96 109 111 114 128 135 140 145 145 143 145 152 156 162 168 159 147 144 137 126 144 183 250 256 259 300 288 288 287 287 293 294 306 297 266 248 241 241 233 225 230 238 236 236 238 237 237 237 237 241 243 237
266 263 262 245 252 258 236 230 237 246 239 232 244 252 259 250 233 249 218 153 85 321 276 277 272 112 97 98 107 108 100 99 104 109 111 113 107 100 92 85 88 92 92 91 90 96 109 113 112 120 131 141 142 133 130 133 134 136 146 150 144 139 137 134 128 137 169 212 240 268 308 286 282 277 278 277 268 282 283 268 271 267 261 262 257 250 256 262 253 247 244 243 242 242 248 250 240
253 269 285 255 242 244 236 233 228 234 243 230 239 250 253 244 226 238 208 139 118 245 274 280 259 128 101 99 103 105 105 107 112 114 110 107 108 103 90 81 79 86 92 96 96 95 101 115 120 118 119 128 136 132 125 123 125 128 134 134 127 127 129 127 126 127 139 157 158 157 252 276 278 267 259 266 259 263 266 270 279 277 268 270 275 270 269 275 271 265 259 257 256 253 257 263 260
247 250 261 258 247 231 218 220 224 228 227 191 226 251 249 234 217 223 188 140 146 217 243 229 229 133 107 98 96 104 112 115 117 115 110 108 110 105 99 100 95 93 102 104 103 102 102 111 123 123 116 115 122 126 121 115 117 122 128 135 135 137 135 128 126 125 128 140 149 165 219 264 276 264 245 253 253 255 260 266 272 278 278 271 271 274 274 276 274 270 272 277 275 268 260 264 273
251 247 242 243 254 245 211 196 209 222 188 173 233 251 259 240 205 180 123 165 249 256 222 193 258 91 110 110 104 111 115 114 122 117 110 114 116 113 116 117 115 118 120 113 110 112 111 114 122 123 117 115 115 116 116 112 111 114 119 127 132 140 148 146 143 146 146 144 153 183 236 272 282 273 265 267 257 257 263 263 267 275 278 272 269 271 271 271 271 265 263 274 281 280 272 261 266
234 243 245 230 245 254 200 177 191 215 186 188 233 253 270 246 184 148 134 188 232 264 203 117 358 87 120 114 107 114 115 114 124 124 121 124 121 120 122 119 121 131 128 119 115 114 116 119 126 128 122 117 117 119 119 118 117 116 117 120 120 124 131 137 140 149 155 153 168 204 248 273 283 284 283 279 268 267 273 273 274 274 273 272 271 270 267 264 265 263 257 256 265 275 280 273 268
214 229 249 241 245 235 167 172 191 209 197 190 219 259 284 255 144 141 153 184 189 223 129 120 238 169 121 115 112 117 118 120 127 128 130 129 125 124 125 124 126 131 129 123 117 114 114 116 123 128 127 125 123 130 129 132 138 122 110 113 111 111 120 126 127 138 145 148 181 230 254 265 273 282 286 285 281 280 281 282 281 278 275 274 272 268 265 265 263 257 254 251 253 259 266 272 272
216 217 242 259 258 236 178 181 189 200 205 206 215 244 268 179 140 163 168 186 188 184 169 163 210 166 132 139 126 125 124 130 132 133 138 134 131 132 135 135 130 126 125 123 119 118 119 116 118 120 125 127 122 130 140 143 142 115 86 85 63 23 31 9 225 196 181 168 216 251 258 264 273 281 285 285 286 287 285 282 281 282 278 273 271 269 268 270 269 262 259 254 250 254 257 259 260
231 214 219 247 260 264 249 187 175 186 186 221 238 238 253 249 238 214 170 175 192 194 195 171 183 191 183 184 136 129 132 136 134 139 142 139 142 143 141 139 131 125 122 120 118 119 119 115 115 116 120 121 113 114 127 139 136 73 40 49 31 344 348 332 297 261 252 237 241 254 255 257 262 271 277 280 284 285 282 277 276 278 277 271 266 267 268 268 267 266 263 257 252 254 257 257 258
252 255 246 248 247 253 254 181 157 183 183 208 241 237 248 251 252 247 170 158 184 201 216 172 175 187 180 189 135 128 134 131 135 144 142 144 154 150 144 140 132 125 122 121 120 117 115 112 112 110 108 110 110 103 104 119 114 71 45 39 22 358 359 340 314 280 278 273 262 272 278 273 261 261 265 267 274 276 273 271 271 271 272 272 264 262 264 263 260 258 257 258 257 259 261 259 258
274 298 297 280 258 234 245 191 160 188 221 224 248 259 265 266 261 258 185 153 177 205 227 202 193 199 187 175 123 125 131 127 138 149 149 153 159 152 143 139 132 127 125 124 122 119 117 114 113 110 107 109 115 116 114 114 107 88 69 57 28 6 10 2 340 320 317 300 278 275 283 287 275 271 270 265 266 265 265 266 266 265 264 264 262 261 260 256 253 252 253 256 258 261 263 261 258
271 295 289 281 272 256 281 267 174 172 184 213 250 266 266 263 264 269 213 164 175 192 226 214 200 211 186 144 123 129 132 129 141 148 151 156 155 150 144 139 135 131 128 125 120 117 115 114 113 111 109 108 110 114 116 118 121 126 109 85 53 354 326 308 322 324 299 275 267 269 275 280 276 278 284 283 277 269 267 266 263 263 263 263 262 263 260 253 248 247 248 249 252 257 259 262 260
278 275 269 269 278 280 282 273 245 196 162 210 235 258 268 257 250 258 250 226 190 171 211 224 197 209 191 141 126 133 136 137 148 150 153 157 154 150 145 139 135 130 127 124 120 116 115 115 114 112 110 106 107 108 107 104 105 114 110 99 98 36 308 291 304 311 295 285 291 291 284 281 274 269 271 275 278 275 271 270 268 265 264 264 262 261 258 252 248 246 244 244 246 251 254 258 251
280 261 262 260 260 271 263 250 256 255 272 274 251 243 274 274 260 246 232 245 233 179 195 229 206 200 197 150 133 140 144 147 157 159 159 159 155 150 143 137 134 131 129 126 123 121 118 117 115 113 110 106 104 102 101 94 86 84 77 68 59 34 358 315 322 330 319 302 309 312 302 292 285 276 272 269 270 272 273 276 279 274 268 265 262 260 256 251 250 247 244 241 240 241 244 249 244
265 255 256 265 262 265 265 255 255 258 275 278 266 245 257 266 269 260 225 223 237 202 189 218 204 188 197 155 139 146 149 154 163 165 163 158 154 149 143 141 139 137 134 132 130 127 124 122 119 116 112 106 100 94 94 93 89 83 76 72 57 32 13 346 330 326 318 307 305 308 308 294 286 285 286 284 278 272 273 278 283 282 278 272 263 260 258 256 253 249 245 240 235 235 238 243 243
260 252 242 252 265 270 274 275 268 253 246 249 254 260 255 247 252 261 249 233 242 216 197 222 193 173 197 158 141 148 150 157 168 169 165 159 153 149 148 148 146 142 140 141 139 136 134 131 128 124 118 110 104 97 91 86 82 79 74 69 57 36 14 355 337 321 313 310 305 299 295 290 287 288 291 291 287 281 276 275 276 280 284 281 273 268 266 262 257 253 251 242 236 237 239 241 243
256 255 248 247 254 258 268 279 280 272 264 260 263 267 269 263 252 254 258 254 251 228 214 235 199 182 207 172 149 150 153 163 170 173 170 161 154 152 156 156 151 147 146 146 146 144 141 138 135 131 124 116 108 102 96 89 82 74 67 60 46 26 3 343 331 323 313 309 309 307 305 302 295 290 288 288 288 287 283 279 276 277 280 282 282 277 272 267 260 257 255 246 240 240 234 233 241
263 270 271 272 270 260 254 261 263 263 273 272 262 258 261 266 260 255 251 251 256 241 220 234 232 226 219 184 157 151 161 172 169 171 175 168 157 156 163 161 154 151 150 151 150 148 145 142 139 134 128 123 114 105 96 94 90 78 66 56 42 20 356 337 332 329 322 317 315 313 312 309 304 295 288 287 288 288 288 286 282 279 277 278 279 278 277 273 264 260 260 253 246 239 231 232 239
263 287 285 286 290 284 277 269 266 266 269 267 260 258 262 261 254 251 247 246 249 239 220 219 233 240 231 197 169 161 169 173 168 173 180 173 160 161 166 161 156 154 154 154 152 150 149 145 141 136 132 127 121 111 98 92 88 80 65 48 35 20 357 338 332 328 324 323 317 314 314 311 308 302 293 290 289 288 288 288 285 282 279 277 277 277 279 280 274 269 265 262 255 244 237 238 240
292 317 301 282 280 283 285 280 275 272 267 265 265 264 265 262 254 253 255 255 251 235 215 216 226 226 218 205 186 178 176 171 171 178 180 171 162 165 167 160 158 158 158 156 153 152 152 149 146 142 138 134 131 125 114 106 90 78 58 37 25 8 352 341 335 328 325 323 317 316 315 312 310 306 302 297 290 287 287 288 288 288 288 287 284 280 279 280 281 280 274 271 265 252 244 242 242
308 331 315 286 281 288 289 283 281 279 269 264 267 268 269 267 259 258 266 269 272 256 214 219 231 224 205 191 190 193 185 176 177 178 177 170 165 168 166 160 160 161 160 157 156 157 155 155 153 147 143 141 140 136 129 128 111 91 52 22 12 1 347 339 336 329 325 322 317 317 316 314 313 308 304 300 296 292 288 286 288 290 293 293 292 289 286 284 283 284 282 279 274 261 253 249 246
287 315 321 319 312 298 288 279 272 263 260 265 268 269 266 262 261 258 256 256 260 258 243 239 240 230 208 184 183 194 191 182 177 178 180 171 167 171 166 163 164 163 163 161 162 162 159 160 157 150 148 146 145 142 139 142 140 123 41 7 0 356 343 335 331 324 321 320 317 316 316 315 313 312 310 305 303 300 294 291 289 290 291 291 293 293 292 290 288 288 287 285 282 278 271 260 252
263 256 270 285 291 280 269 262 254 251 261 267 275 280 270 259 268 268 254 240 209 206 225 256 263 237 209 184 179 189 189 186 183 179 176 168 168 173 167 167 169 167 167 166 165 165 163 163 160 155 154 152 150 149 151 162 167 176 254 341 348 347 337 332 326 319 317 316 314 313 314 314 314 313 311 307 306 304 299 299 297 294 293 291 292 292 292 292 292 292 292 290 286 284 283 276 264
248 240 243 248 254 260 260 262 260 260 266 269 284 301 292 268 285 310 292 269 237 204 176 250 304 11 235 192 183 190 179 185 196 176 164 168 174 173 168 171 172 171 172 170 169 168 165 165 164 161 158 157 158 160 167 177 182 195 223 290 329 336 332 328 322 317 315 311 309 309 308 309 308 307 306 304 304 304 301 300 298 296 293 291 288 288 289 290 291 291 290 291 289 285 284 282 276
245 246 256 259 259 260 262 268 267 272 284 285 289 301 291 266 257 312 325 345 325 259 166 213 229 105 276 227 196 191 172 185 202 168 160 174 175 171 170 173 175 175 175 172 171 170 168 169 169 165 162 163 167 171 179 187 189 199 210 261 312 322 320 318 314 312 309 305 303 302 301 301 300 300 301 301 301 302 301 299 297 295 292 290 287 286 287 286 286 287 285 286 287 288 287 284 280
255 243 249 254 265 273 278 279 275 280 287 283 278 269 275 276 228 239 282 276 248 241 217 227 222 180 215 236 218 199 180 189 188 160 164 175 171 169 170 174 176 178 179 175 173 173 171 171 172 169 166 169 174 176 184 192 191 201 227 280 304 315 314 312 310 308 306 304 302 298 297 298 298 297 297 298 299 300 299 299 297 295 293 292 289 287 286 284 283 283 283 281 280 283 285 285 285
255 243 249 273 320 299 283 279 280 282 270 259 257 253 265 274 261 302 302 260 238 252 240 220 210 190 204 221 228 220 202 192 174 154 159 167 170 171 171 177 179 179 182 180 177 175 173 172 172 172 171 173 178 181 187 195 198 226 291 312 311 315 316 312 310 308 307 305 303 301 299 298 297 296 295 296 297 297 297 297 296 294 294 294 292 290 288 286 285 283 282 282 282 281 278 278 284
264 252 242 258 353 302 280 273 270 268 262 258 258 256 262 262 252 13 350 316 295 298 298 256 167 152 196 224 229 257 233 191 167 158 156 164 172 172 174 181 183 182 183 183 180 176 175 174 172 172 175 176 179 183 187 195 213 276 313 319 315 317 315 311 310 310 309 307 304 301 300 299 298 297 295 294 294 294 292 292 293 293 295 294 293 291 289 287 285 283 282 283 285 286 281 276 276
253 263 261 233 227 245 284 274 261 260 261 261 265 263 266 262 229 50 348 306 299 302 310 319 213 157 226 245 206 242 254 206 194 182 157 158 171 176 180 185 186 185 185 183 181 177 176 177 174 174 176 176 178 179 180 196 222 262 297 303 307 313 312 311 313 311 308 306 304 303 301 300 299 297 295 294 292 291 290 289 290 291 292 293 293 293 292 291 289 286 283 280 281 286 286 282 278
238 250 252 238 237 227 190 220 242 258 266 265 271 271 271 277 99 87 291 277 316 321 312 306 306 111 248 279 236 231 241 213 228 209 156 153 176 181 180 185 188 188 188 186 180 178 179 178 176 174 174 174 177 175 182 205 223 258 281 288 297 304 306 309 310 310 309 307 304 302 302 300 299 298 298 296 293 292 291 291 292 293 293 294 294 295 295 296 296 294 289 282 278 279 282 283 282
233 242 248 241 252 249 222 227 229 232 249 257 267 269 256 281 106 117 216 328 54 332 305 302 310 313 201 287 308 297 282 222 233 230 182 167 178 182 177 182 190 189 192 190 180 179 181 180 179 175 170 172 175 182 198 205 214 259 273 274 285 296 303 305 306 307 305 303 301 302 304 305 304 303 300 295 292 292 292 293 294 294 294 294 295 296 297 298 299 300 298 291 282 278 278 281 283
257 247 253 232 249 272 249 240 227 225 246 250 262 271 244 170 265 128 67 343 81 340 334 315 292 296 298 324 303 293 289 280 306 313 283 165 157 173 172 177 191 197 197 191 182 183 183 181 181 175 171 176 181 193 204 202 216 251 259 269 284 291 297 300 303 303 298 299 305 308 309 307 304 302 300 297 295 295 295 295 294 291 291 293 295 294 293 292 292 295 298 298 292 285 280 279 280
Height
768 769 768 769 767 768 767 766 783 778 777 790 779 774 764 748 748 752 756 754 750 742 736 736 731 731 736 738 739 736 736 738 742 753 764 753 741 746 747 747 748 748 751 752 754 755 757 760 762 764 766 768 769 770 771 772 773 774 776 776 777 778 779 780 780 781 782 782 784 784 786 786 788 789 791 792 793 795 797 799 801 802 803 804 805 806 807 808 809 809 810 810 811 811 812 812 813
769 769 767 769 766 770 769 764 787 786 783 793 776 767 758 744 749 753 749 749 750 738 731 732 730 731 730 729 729 734 734 728 731 742 745 740 741 746 746 748 748 749 751 751 753 754 757 759 761 763 766 768 769 770 771 772 774 775 776 777 778 779 779 781 781 782 782 784 785 786 787 787 788 790 791 793 794 796 797 799 801 803 804 805 806 807 808 809 809 810 811 811 812 812 813 813 814
769 769 767 768 764 766 767 767 786 790 791 793 774 757 750 750 749 744 739 742 739 729 731 732 732 730 730 734 730 736 736 724 727 734 735 738 742 745 746 748 748 749 749 750 752 753 755 757 759 762 765 768 770 771 773 774 775 776 777 778 779 780 781 781 782 783 784 785 786 787 788 788 789 790 792 793 795 797 798 800 802 803 804 805 806 808 809 810 810 811 811 812 813 813 814 814 815
768 769 767 766 766 767 771 777 782 785 789 784 771 754 745 748 743 736 733 734 730 727 734 733 735 727 730 742 732 734 735 724 724 729 735 737 741 745 746 747 748 750 750 751 752 753 755 756 759 762 765 768 771 773 774 775 776 778 779 780 781 782 782 783 784 784 785 786 787 788 789 790 790 791 792 794 796 797 799 801 802 804 805 806 807 808 809 810 811 812 812 813 814 814 814 815 815
769 769 767 765 771 770 771 777 774 779 782 772 767 756 743 740 737 734 729 727 726 730 734 733 739 728 727 734 728 735 733 724 721 725 734 736 739 743 744 747 749 749 750 752 752 754 755 756 759 761 766 769 771 774 775 777 778 780 781 782 783 783 784 785 785 786 787 788 789 790 790 791 792 793 793 795 796 798 799 801 803 804 805 806 807 808 810 811 812 813 813 814 815 815 815 815 816
769 768 765 763 766 764 771 779 774 773 765 757 762 751 739 735 731 730 727 726 726 729 729 732 736 733 735 728 724 728 724 724 723 724 732 736 741 742 744 747 748 750 751 752 754 755 755 756 759 762 765 769 772 775 777 778 780 781 782 784 785 785 786 786 787 788 789 789 790 791 792 793 793 794 794 795 797 798 800 801 803 805 806 807 807 809 810 812 813 814 815 815 815 816 816 816 817
768 768 763 765 766 764 779 783 775 770 755 748 752 743 735 733 728 727 730 731 731 728 727 728 726 737 743 730 727 722 716 723 723 727 732 736 742 743 745 748 751 752 752 754 755 756 756 757 758 762 766 769 773 775 778 780 781 782 783 785 786 787 788 788 789 789 790 791 792 793 794 795 795 795 796 796 797 799 800 802 803 805 807 807 808 809 811 813 814 815 815 816 816 817 817 817 817
766 767 762 768 772 769 778 777 769 765 753 742 740 735 730 729 728 731 734 736 737 731 729 727 723 740 739 727 735 725 717 725 726 731 733 736 742 745 748 751 756 757 758 757 758 758 758 759 760 762 766 770 773 776 779 781 783 784 785 785 787 788 789 790 790 791 792 792 793 794 795 796 797 797 797 798 798 799 801 803 804 806 807 808 809 810 812 814 815 816 816 817 818 818 818 818 819
763 765 764 770 775 771 771 769 763 755 746 739 733 728 725 726 728 731 735 736 735 733 733 728 726 740 737 730 738 727 721 726 728 733 735 739 742 747 750 751 755 760 765 763 762 762 762 763 762 764 767 771 774 777 779 782 784 786 788 787 788 789 790 791 792 793 793 794 795 796 796 797 798 798 799 800 800 800 802 803 805 807 808 809 810 812 813 815 816 817 817 818 819 819 820 819 820
761 763 766 771 775 776 773 766 758 748 740 735 729 724 723 725 727 732 737 738 734 734 733 726 728 737 737 738 738 729 726 727 732 737 740 743 745 750 752 754 756 759 767 769 769 767 768 769 768 769 770 773 776 778 781 783 786 787 790 791 791 791 792 792 793 794 795 796 796 797 798 798 799 799 801 801 801 802 802 804 805 807 809 811 811 813 814 815 817 817 818 819 820 820 820 820 820
765 761 762 773 778 779 775 765 755 744 734 729 725 721 722 724 729 734 736 737 734 735 732 727 733 734 735 740 737 729 728 731 735 741 744 746 749 752 754 758 759 761 765 769 775 773 772 775 774 774 775 777 778 780 782 784 787 788 791 792 794 794 794 794 794 795 796 797 797 798 799 799 800 800 802 802 803 803 804 804 805 807 809 811 813 813 815 816 817 818 819 820 821 821 821 821 821
769 764 762 777 779 774 767 761 752 740 730 728 726 720 720 724 732 736 737 739 735 736 732 730 733 732 741 745 736 729 730 735 739 744 748 749 751 754 756 758 759 760 760 763 774 778 778 779 779 779 781 782 782 784 785 786 788 789 791 792 794 796 797 797 797 797 797 798 798 799 800 800 801 801 803 803 804 805 805 805 806 807 809 812 813 814 815 816 818 819 820 820 821 821 821 822 822
768 765 765 773 769 766 762 758 750 740 734 730 725 718 719 728 735 737 739 740 738 740 733 729 729 732 746 746 734 731 734 739 744 749 752 755 757 757 758 758 758 756 755 756 766 778 784 785 784 784 785 786 787 788 788 789 789 789 792 793 795 796 798 799 799 799 799 799 799 800 801 801 802 803 804 804 805 806 806 807 807 808 809 811 813 815 816 817 819 819 820 821 821 822 822 822 822
762 759 764 769 762 759 758 756 750 745 740 730 724 719 723 732 735 736 739 743 741 737 730 724 728 738 746 744 738 737 742 745 748 753 756 762 763 763 764 763 762 758 756 756 759 770 781 786 788 787 787 788 791 792 793 792 791 792 793 794 796 797 798 799 800 800 801 801 801 801 801 802 803 804 804 805 806 806 807 808 808 809 810 812 813 815 817 818 819 820 821 822 822 822 823 823 823
758 756 761 768 765 761 756 752 748 749 743 730 729 726 732 734 731 737 739 745 742 728 726 724 727 741 747 747 747 744 749 750 751 755 757 763 764 768 771 770 771 766 764 764 762 764 771 778 785 788 788 789 791 793 795 794 794 794 794 795 797 798 798 799 801 801 801 802 802 802 803 803 804 805 805 806 806 807 808 808 809 809 810 812 813 815 817 818 819 820 821 822 823 823 823 823 823
753 756 764 769 769 765 756 748 744 747 741 731 732 730 739 737 729 737 734 736 739 728 730 732 728 736 742 743 744 744 750 752 753 756 757 762 763 767 774 776 778 774 772 771 770 769 770 771 776 783 787 791 791 793 796 795 796 796 796 797 797 798 799 800 801 802 803 803 804 804 804 804 805 806 806 807 807 808 808 809 810 810 811 812 814 815 817 819 820 821 822 823 823 823 824 824 824
750 759 770 772 769 764 754 747 742 741 735 731 733 734 745 742 730 733 729 731 740 736 735 734 728 729 734 736 738 743 749 752 755 757 760 764 764 766 772 778 781 780 777 776 775 776 776 771 771 778 784 790 792 793 795 796 796 796 797 797 798 799 800 801 801 803 804 804 806 806 806 805 806 807 807 808 808 809 809 810 811 811 812 813 814 816 817 819 820 821 822 823 824 824 824 825 825
755 764 773 773 767 758 746 739 733 733 736 735 737 739 744 744 736 734 734 736 738 737 735 732 730 727 728 732 738 745 749 752 755 759 763 766 767 767 769 775 782 783 780 780 780 780 780 776 771 773 777 784 792 795 795 795 795 795 797 797 798 799 800 802 802 803 805 805 806 807 807 806 806 807 808 808 809 810 811 811 812 812 813 814 815 816 817 819 820 822 823 824 824 825 825 825 825
759 764 770 770 759 747 734 731 730 734 741 740 739 740 743 744 739 736 742 743 738 740 737 732 733 728 730 737 742 748 751 755 758 760 764 767 770 771 770 775 782 785 783 783 783 783 783 782 776 772 772 775 786 793 793 792 793 795 796 797 798 799 800 801 802 803 804 805 806 806 807 806 806 807 808 810 810 812 812 812 813 813 814 815 815 816 818 819 820 822 823 824 825 825 825 825 826
758 762 768 761 748 741 731 731 734 736 740 742 741 740 743 742 738 738 744 746 742 742 739 736 738 735 739 745 747 752 755 759 761 762 766 769 773 775 773 774 781 788 788 786 785 785 784 785 782 778 775 772 776 785 789 789 790 793 795 796 797 798 800 802 803 804 804 805 806 806 806 805 806 806 809 811 811 813 812 812 814 815 815 815 816 817 818 819 820 822 823 824 824 825 825 826 826
755 758 764 751 740 741 733 731 736 736 740 743 742 743 746 740 737 741 744 750 746 740 739 740 742 739 742 747 750 754 757 761 764 765 768 770 774 776 774 773 779 786 788 787 786 785 785 784 783 781 781 778 776 778 783 785 787 789 792 794 796 797 799 801 803 803 804 805 806 806 806 805 806 806 808 810 811 812 811 812 814 815 815 815 816 817 818 819 820 821 822 823 823 824 825 826 826
754 753 753 744 740 743 734 733 738 738 741 744 745 747 744 737 739 742 744 752 747 738 737 738 741 740 741 746 750 755 758 762 765 767 770 772 774 777 776 774 776 780 783 784 784 785 785 784 782 782 784 784 782 780 781 785 786 787 788 790 792 795 798 799 801 802 804 805 806 807 807 807 806 806 807 808 809 811 811 812 813 814 814 814 815 816 818 819 820 821 822 822 822 823 824 825 826
755 751 745 742 741 743 737 737 740 741 745 747 747 744 739 741 744 740 741 746 741 735 734 736 739 739 742 746 751 756 760 765 767 769 771 772 775 777 778 777 776 778 780 781 782 784 784 784 783 783 785 787 785 783 783 785 787 788 787 788 789 792 795 798 800 803 805 806 807 808 807 807 806 806 807 807 809 810 811 811 812 812 812 813 814 815 817 818 820 821 822 822 822 823 824 824 825
753 752 744 740 739 741 739 738 741 743 748 745 742 741 741 747 746 740 740 740 736 734 732 736 737 737 744 749 754 759 762 766 769 771 773 774 776 777 777 777 777 778 779 779 780 782 783 784 784 784 786 787 786 785 785 786 788 788 789 790 789 790 793 796 800 803 805 806 807 808 807 807 806 806 807 808 810 811 811 811 811 811 811 813 814 815 816 817 818 820 821 821 822 822 823 824 823
750 752 744 739 738 739 737 739 742 744 745 743 743 746 746 745 743 742 742 738 735 733 733 736 736 738 745 752 758 761 763 767 770 772 775 776 777 777 777 777 778 779 779 779 780 781 783 784 785 784 785 786 785 785 785 786 787 788 790 791 791 791 792 795 799 802 806 806 806 807 807 807 807 806 807 809 810 810 811 811 812 812 812 812 813 814 815 816 817 818 820 820 821 821 821 822 823
747 746 742 739 740 739 740 741 743 744 743 743 746 749 745 740 741 744 740 736 734 733 736 736 735 739 744 752 759 762 765 768 771 774 775 777 777 777 779 779 778 779 779 780 780 781 783 784 785 785 785 786 785 784 785 786 787 788 789 791 792 792 793 795 798 801 805 806 806 806 806 807 807 807 807 808 808 808 809 811 811 812 813 813 813 814 815 816 816 817 818 819 820 820 820 821 821
741 742 740 741 743 739 740 742 741 742 742 742 747 749 744 737 743 748 738 732 733 735 739 736 735 740 743 751 759 763 766 769 772 773 775 777 778 779 780 781 781 780 781 781 781 782 783 784 785 786 787 787 786 785 786 788 788 788 789 790 791 792 793 795 797 799 803 805 806 805 805 807 807 806 806 806 807 808 808 809 810 811 812 813 814 814 815 815 816 816 817 818 818 819 819 819 819
740 742 742 743 743 741 740 742 742 742 742 740 742 746 742 738 743 745 735 731 735 740 740 736 736 739 743 751 759 763 767 770 772 773 775 777 779 781 783 784 784 783 783 783 783 783 784 784 786 787 788 788 788 787 787 789 789 789 790 791 792 792 793 794 796 798 801 803 804 803 804 806 807 806 805 806 806 807 808 808 809 810 811 812 813 814 814 815 816 816 817 817 818 818 818 818 818
743 743 750 749 745 746 743 742 741 742 743 736 738 750 749 743 743 738 731 732 737 741 741 739 738 739 744 751 758 765 768 771 773 774 776 777 780 783 784 786 786 786 785 785 786 785 786 786 786 787 788 789 789 789 790 790 791 791 791 792 792 793 793 793 794 797 799 802 803 803 804 806 806 806 805 805 806 807 807 808 809 809 810 811 812 813 814 814 815 815 816 817 817 817 817 817 817
747 746 753 754 751 749 741 739 740 740 740 732 742 762 756 741 738 732 729 732 737 742 741 740 738 737 745 751 759 768 770 771 773 775 777 778 781 783 783 785 786 787 786 786 786 786 788 787 787 788 789 790 791 792 792 792 792 792 793 793 793 793 793 793 794 796 799 801 802 803 805 805 805 805 804 805 805 806 806 807 808 809 810 810 811 812 813 814 815 815 815 816 817 817 817 816 816
750 751 752 753 758 750 733 734 740 741 737 731 744 763 754 737 732 730 731 734 737 741 739 739 738 739 746 752 760 768 770 772 773 775 778 779 781 782 783 784 785 786 786 786 787 787 788 789 789 790 790 792 793 794 794 794 794 793 794 793 793 793 793 793 794 795 798 801 802 803 804 804 805 804 804 804 804 805 805 806 806 807 809 810 810 811 812 813 814 815 815 816 816 816 816 816 815
750 759 760 752 754 745 728 729 736 740 736 731 745 759 750 733 726 728 733 735 738 740 739 740 742 742 747 752 759 767 770 772 774 776 778 780 782 782 783 784 785 786 786 787 788 788 789 789 790 791 792 793 793 795 795 796 796 795 795 794 794 794 793 794 794 794 797 800 801 802 804 804 805 805 804 804 804 804 805 805 805 806 807 808 809 810 811 811 812 814 814 815 815 815 815 815 815
749 757 762 751 746 740 733 731 729 732 735 734 744 753 748 733 725 728 732 733 737 740 741 743 745 744 747 753 760 767 771 773 775 777 778 780 782 782 783 785 786 787 787 787 788 789 790 790 791 791 792 793 794 795 796 797 797 797 797 796 795 795 795 795 795 795 797 798 800 802 803 804 804 804 804 804 804 804 804 804 805 806 807 807 808 809 810 810 811 812 813 814 814 814 814 814 813
752 751 754 747 740 737 737 736 728 727 735 738 740 746 745 736 728 728 730 732 735 740 743 745 746 747 748 752 759 766 771 774 776 777 778 780 782 783 784 785 786 787 787 787 788 789 790 791 792 792 793 794 794 795 796 797 798 798 798 798 797 796 796 796 796 797 798 798 800 801 803 803 803 802 803 803 803 803 803 804 804 805 806 806 807 807 808 809 810 811 811 812 813 813 813 813 812
751 748 749 746 739 736 736 735 729 728 736 742 743 744 742 735 729 726 726 729 735 738 740 743 745 748 749 751 757 764 768 773 775 776 778 780 783 784 785 786 786 787 787 787 788 789 790 791 792 793 793 794 794 795 796 797 797 798 798 798 798 798 798 798 798 799 799 799 799 800 801 801 801 801 802 802 802 802 802 803 804 804 805 805 806 806 807 808 809 810 810 811 811 812 812 812 812
741 737 740 742 739 736 728 726 726 726 737 744 743 744 740 734 730 726 724 728 734 738 737 740 744 746 748 751 757 762 767 772 775 777 778 780 783 784 785 786 786 786 787 788 789 789 790 791 792 793 794 794 795 796 796 797 797 798 798 798 798 798 798 798 799 799 799 799 799 799 799 799 800 800 801 801 802 802 802 803 803 804 804 804 805 806 806 806 807 808 809 810 810 810 810 810 810
736 736 739 737 733 732 721 719 722 721 734 741 739 741 739 735 731 724 724 729 735 738 739 740 742 745 746 751 759 763 766 770 773 777 778 780 783 784 784 785 785 786 787 788 789 790 790 792 793 794 795 795 795 796 796 797 797 798 798 798 798 798 799 799 799 800 800 799 799 799 799 799 799 799 800 801 801 802 803 803 803 803 803 803 804 805 805 805 806 807 808 809 810 809 809 809 809
738 743 746 739 731 729 720 718 720 719 733 741 738 743 741 735 732 724 722 730 735 738 740 740 741 743 745 752 761 764 766 768 771 776 778 779 781 783 784 784 784 785 786 788 789 790 791 792 793 794 795 796 796 796 796 797 797 798 798 798 798 798 799 799 799 800 799 799 799 799 799 799 799 799 800 800 801 802 802 802 802 802 802 802 803 803 803 804 805 806 807 808 808 808 807 807 809
742 747 749 746 736 733 728 722 718 718 731 737 735 742 742 733 728 724 722 725 727 731 736 737 739 742 743 751 761 763 765 769 771 775 777 779 780 782 783 783 784 785 786 788 788 789 791 792 794 794 795 796 797 797 797 797 798 798 798 798 798 798 798 799 799 799 799 798 798 798 798 798 799 799 799 800 801 801 801 801 801 801 801 801 801 801 802 802 804 805 805 805 806 807 806 806 808
748 749 751 751 741 741 740 728 720 717 724 728 729 739 742 734 727 723 721 722 721 724 731 733 734 739 741 747 756 760 765 769 771 774 775 777 779 780 782 783 784 785 786 788 788 789 791 792 794 794 795 796 797 797 797 797 798 798 798 798 798 798 798 798 799 799 799 798 798 798 798 797 798 798 798 799 800 800 800 800 800 800 800 800 800 800 800 801 802 803 804 804 805 805 804 805 806
750 746 749 749 740 739 738 729 722 721 726 726 728 743 746 737 735 728 718 718 720 718 725 729 728 732 737 743 752 757 762 767 770 773 773 774 777 779 781 783 784 785 787 788 789 790 791 792 794 794 795 796 797 797 797 798 798 798 798 798 799 798 799 798 798 799 798 798 798 798 798 797 797 797 797 798 798 799 799 799 799 799 798 799 799 799 799 800 800 801 801 802 803 803 802 804 805
752 744 741 742 739 737 734 729 726 733 741 730 730 755 755 735 734 732 720 720 721 716 721 726 724 729 735 742 752 756 760 765 768 770 771 772 775 779 781 782 783 785 786 788 789 790 791 792 794 795 795 796 797 797 798 798 798 799 799 799 799 799 799 799 798 798 798 798 798 797 797 797 797 797 796 797 797 797 797 797 798 797 797 798 797 798 798 798 799 799 799 800 801 801 801 802 802
755 742 732 733 735 736 736 735 736 746 749 729 726 753 759 740 732 729 723 724 722 716 720 723 724 729 733 739 750 756 760 765 767 768 769 770 773 777 780 781 783 784 786 788 790 791 792 792 793 794 795 796 797 797 798 799 799 799 799 799 799 799 799 799 798 798 798 797 797 797 796 796 796 796 796 796 796 796 796 796 796 797 797 796 796 796 796 797 797 797 797 798 798 798 799 798 796
752 734 727 730 731 733 735 736 740 743 740 731 727 738 753 750 737 727 725 727 725 721 723 725 726 730 730 733 744 754 759 762 764 766 768 769 772 775 778 781 782 784 785 787 789 790 791 792 793 794 795 795 796 797 797 798 799 799 799 799 799 799 799 799 798 798 797 797 796 796 796 795 795 795 795 795 795 795 795 796 796 796 796 796 795 795 795 795 795 796 796 796 796 796 795 794 792
745 731 728 730 731 732 732 735 740 736 741 749 737 732 751 754 735 725 724 727 728 726 726 728 729 729 730 732 739 748 754 757 760 764 767 768 770 774 777 780 781 783 785 786 788 789 791 792 793 793 794 795 796 797 797 798 799 799 799 799 799 799 799 798 798 797 797 796 796 795 795 795 794 794 794 794 794 794 795 795 795 795 795 794 794 794 793 793 793 794 793 793 793 793 792 790 789
737 733 733 731 731 733 734 740 743 740 751 760 744 736 753 755 735 728 730 730 729 726 724 727 728 727 729 731 735 742 748 753 757 761 764 767 770 773 776 778 781 782 783 785 787 788 790 791 792 793 793 795 795 796 797 798 799 799 799 799 798 798 798 798 797 797 797 796 796 795 795 794 794 793 793 793 793 793 794 794 794 794 794 793 793 793 792 792 792 791 791 791 791 790 789 788 786
735 741 743 741 739 738 741 744 744 755 765 758 744 736 748 756 741 729 735 734 726 723 724 725 724 723 725 729 733 738 742 748 753 758 761 765 769 772 775 777 779 782 782 784 785 787 789 790 791 792 793 794 795 796 797 798 798 799 799 799 798 798 798 797 797 796 796 796 795 795 794 794 793 793 793 792 792 792 793 793 793 793 793 793 792 792 791 790 790 790 789 789 788 787 786 786 784
739 750 755 761 761 756 759 757 756 774 777 756 742 735 743 758 746 728 729 726 721 725 727 725 723 721 722 725 730 735 739 743 749 755 758 762 767 771 773 776 778 780 781 782 784 785 787 789 789 790 792 793 794 795 796 797 798 799 798 798 798 798 798 797 797 796 796 795 794 794 794 793 793 792 792 792 791 792 791 792 792 792 792 792 791 790 790 789 788 787 787 786 785 785 784 783 782
745 755 764 777 784 783 784 779 772 776 769 751 741 740 746 750 736 725 725 720 717 721 722 722 721 719 721 723 727 732 736 741 746 751 755 759 764 768 771 775 777 778 779 780 782 783 785 787 788 789 790 791 793 794 795 797 798 798 798 798 797 797 797 797 797 796 796 795 794 794 793 793 792 792 791 791 791 791 791 791 790 790 790 790 790 789 789 788 787 786 785 784 783 782 782 781 780
752 757 764 777 788 798 800 790 781 776 765 750 742 751 758 748 730 724 722 715 713 714 717 721 721 721 723 722 726 730 734 741 745 747 754 757 761 764 768 773 775 777 778 778 780 781 783 784 786 787 788 790 791 793 794 796 796 797 796 796 796 796 796 796 796 796 796 795 795 794 793 793 792 791 791 791 790 790 790 790 790 789 789 788 788 788 787 786 786 784 783 783 781 780 779 779 778
750 746 754 769 777 788 794 789 785 781 772 760 754 761 764 753 739 726 719 715 713 713 717 719 720 722 725 724 725 728 733 740 744 746 753 756 758 762 766 770 774 775 776 777 778 779 781 782 784 785 786 788 790 791 793 794 794 795 795 795 795 795 795 795 795 796 795 795 795 794 793 793 792 791 790 790 789 789 789 789 789 788 787 787 786 786 785 784 783 783 781 780 779 778 777 776 775
748 741 754 767 765 769 779 780 775 774 778 774 766 762 749 738 733 722 719 720 716 716 717 717 720 723 726 728 727 728 732 737 740 745 751 754 756 760 764 768 771 774 775 776 776 778 779 781 782 783 785 787 789 790 792 793 793 793 793 794 794 794 794 794 795 795 794 794 794 793 793 792 791 791 790 789 789 788 788 787 787 786 786 785 784 783 783 782 781 780 779 778 777 776 775 773 772
750 752 761 758 752 761 777 782 771 771 783 776 763 758 744 736 734 724 722 723 718 719 717 717 722 723 726 730 729 729 731 734 737 742 748 752 755 758 762 766 769 771 773 774 775 776 777 779 780 781 784 786 787 789 790 791 792 792 792 792 793 793 793 793 794 794 793 793 793 792 792 791 790 790 789 788 788 787 787 786 785 784 784 783 782 781 780 779 779 778 777 776 775 773 772 771 770
750 758 755 748 754 764 775 786 784 783 787 773 757 756 754 756 751 735 732 733 727 725 721 721 724 727 730 731 731 732 732 734 738 742 747 750 752 756 760 764 767 769 771 773 774 775 776 777 778 780 782 784 786 787 788 790 790 790 791 791 792 792 792 793 793 793 792 792 792 791 791 790 789 789 788 787 787 786 786 785 784 783 782 781 780 779 778 777 776 775 774 773 772 772 770 768 768
743 746 740 748 772 782 785 792 792 790 789 776 760 752 754 758 752 746 749 746 738 732 727 728 728 730 733 732 733 735 733 734 737 740 745 748 750 754 757 760 764 767 769 771 773 774 775 777 777 779 781 783 784 786 787 788 788 788 789 789 790 791 791 791 791 791 791 791 791 790 790 789 788 787 787 786 786 785 784 784 783 782 780 779 778 777 776 775 774 773 771 770 770 769 768 766 765
737 740 738 745 760 771 782 786 784 787 789 781 770 761 761 754 741 745 751 743 739 738 732 733 732 731 735 734 733 735 734 736 736 737 742 747 749 752 754 758 761 764 768 770 772 773 774 776 776 778 780 781 783 785 785 786 786 786 787 787 788 789 790 790 790 790 790 789 789 789 788 788 787 786 786 785 785 784 783 782 781 780 779 778 777 776 774 773 772 771 769 768 767 767 766 764 763
745 750 750 751 752 754 763 767 767 774 783 785 780 772 767 752 735 737 742 738 739 740 736 736 734 733 735 735 735 736 736 736 736 736 739 744 748 750 752 756 758 762 765 768 770 772 773 775 775 776 778 780 782 783 784 785 785 785 785 785 787 788 788 788 788 789 789 788 788 787 787 787 786 786 785 784 784 783 782 781 780 779 778 777 776 774 773 772 770 769 768 766 765 764 763 762 762
747 752 751 756 766 771 773 769 759 758 766 771 773 772 762 745 733 732 735 737 737 737 738 738 735 734 734 736 737 737 738 737 737 737 737 740 747 749 751 755 757 759 762 764 768 771 772 774 774 775 777 779 781 782 782 782 783 783 784 784 785 787 787 787 787 787 787 787 787 786 786 786 785 785 784 783 782 781 780 779 778 777 776 775 774 773 771 770 768 767 766 765 763 762 761 760 760